Date,TemperatureHighF,TemperatureAvgF,TemperatureLowF,DewpointHighF,DewpointAvgF,DewpointLowF,HumidityHigh,HumidityAvg,HumidityLow,PressureMaxIn,PressureMinIn,WindSpeedMaxMPH,WindSpeedAvgMPH,GustSpeedMaxMPH,PrecipitationSumIn
2013-1-1,54,44,32,33,28,20,88,54,35,28.99,28.78,9,2,9,0.00
2013-1-2,60,49,36,24,18,12,54,31,16,28.85,28.63,10,3,10,0.00
2013-1-3,61,52,41,22,13,10,44,22,15,28.90,28.70,12,3,12,0.00
2013-1-4,58,48,38,22,18,13,46,32,21,28.99,28.83,14,2,14,0.00
2013-1-5,60,47,34,27,22,17,67,41,20,29.05,28.83,10,1,10,0.00
2013-1-6,63,50,39,30,23,18,60,37,18,28.89,28.55,12,3,12,0.00
2013-1-7,59,50,37,28,26,22,66,41,27,28.66,28.49,9,2,9,0.00
2013-1-8,55,51,47,26,25,19,41,37,24,28.77,28.56,6,0,6,0.00
2013-1-9,64,53,41,31,27,22,57,38,27,28.87,28.63,6,1,6,0.00
2013-1-10,60,54,48,43,26,19,81,34,24,28.67,28.43,20,6,20,0.01
2013-1-11,51,41,34,24,16,1,57,38,13,28.77,28.54,18,3,18,0.00
2013-1-12,50,38,27,17,11,4,62,34,18,28.86,28.72,12,2,12,0.00
2013-1-13,47,35,24,17,10,4,68,36,18,28.93,28.74,9,1,9,0.00
2013-1-14,43,34,24,12,7,3,50,32,19,29.01,28.80,10,2,10,0.00
2013-1-15,49,38,26,8,1,-7,41,22,10,29.16,28.98,10,3,10,0.00
2013-1-16,59,45,32,19,12,4,44,28,17,29.12,28.85,9,2,9,0.00
2013-1-17,68,56,39,25,20,17,45,27,15,28.94,28.77,16,3,16,0.00
2013-1-18,71,59,45,28,22,17,47,25,13,28.89,28.67,9,1,9,0.00
2013-1-19,71,57,42,27,24,21,51,30,15,28.90,28.69,7,2,7,0.00
2013-1-20,72,57,44,26,22,16,47,27,12,28.85,28.58,8,1,8,0.00
2013-1-21,76,59,45,25,21,15,38,24,11,28.77,28.56,8,1,8,0.00
2013-1-22,76,61,46,26,21,15,40,23,12,28.82,28.62,7,2,7,0.00
2013-1-23,61,53,48,31,27,23,47,36,27,28.83,28.77,6,0,6,0.00
2013-1-24,62,58,56,49,48,46,76,68,60,28.83,28.78,7,1,7,0.00
2013-1-25,75,63,54,57,49,43,81,62,33,28.81,28.56,9,2,9,0.02
2013-1-26,63,60,58,58,57,54,100,92,72,28.59,28.51,15,6,15,0.70
2013-1-28,56,49,40,39,36,32,89,61,46,28.74,28.63,16,4,16,0.70
2013-1-29,56,45,33,36,30,22,96,60,28,28.90,28.69,15,3,15,0.00
2013-1-30,59,48,37,38,30,20,89,55,23,29.04,28.86,9,2,9,0.00
2013-1-31,67,52,37,40,35,30,89,56,26,28.96,28.69,8,2,8,0.00
2013-2-1,69,56,42,42,37,30,91,54,24,28.88,28.70,8,1,8,0.00
2013-2-2,73,58,44,43,38,33,84,50,24,28.93,28.67,10,2,10,0.00
2013-2-3,67,62,58,48,41,37,64,47,34,28.74,28.55,9,2,9,0.00
2013-2-4,72,62,54,50,45,39,81,56,33,28.66,28.50,10,2,10,0.00
2013-2-5,72,60,48,46,41,32,85,54,26,28.67,28.48,9,2,9,0.00
2013-2-6,71,59,49,45,42,40,82,56,34,28.66,28.49,12,1,12,0.00
2013-2-7,71,59,47,47,41,35,85,54,29,28.76,28.55,12,2,12,0.00
2013-2-8,67,58,51,41,32,19,67,39,22,28.58,28.40,20,7,20,0.00
2013-2-9,56,49,41,38,32,25,86,53,31,28.71,28.45,23,5,23,0.00
2013-2-10,59,48,37,34,30,25,84,50,30,28.75,28.59,12,3,12,0.00
2013-2-11,53,44,38,41,35,29,92,70,49,28.89,28.66,16,3,16,0.06
2013-2-12,57,46,35,38,31,21,100,62,29,29.00,28.84,10,2,10,0.00
2013-2-13,62,48,35,31,26,18,79,45,19,28.91,28.72,12,2,12,0.00
2013-2-14,68,55,38,33,28,23,74,39,20,28.85,28.63,9,1,9,0.00
2013-2-15,75,62,45,30,20,10,54,24,10,28.88,28.71,9,2,9,0.00
2013-2-16,77,64,49,26,17,7,33,18,7,28.92,28.54,16,2,16,0.00
2013-2-17,72,59,46,27,20,11,43,23,10,28.62,28.41,13,3,13,0.00
2013-2-18,72,61,46,27,19,13,40,22,11,28.70,28.50,12,3,12,0.00
2013-2-19,71,63,55,31,21,13,39,20,11,28.52,28.26,15,7,15,0.00
2013-2-20,56,45,38,46,40,31,100,84,39,28.67,28.33,16,5,16,0.90
2013-2-21,57,47,39,39,36,32,90,66,43,28.73,28.60,14,4,14,0.00
2013-2-22,60,49,36,43,31,20,100,57,24,28.83,28.69,12,2,12,0.00
2013-2-23,64,52,38,35,29,24,80,45,23,28.83,28.45,12,3,12,0.00
2013-2-24,60,53,44,34,14,0,56,24,9,28.78,28.49,24,10,24,0.00
2013-2-25,64,50,36,24,18,11,56,29,15,28.93,28.68,9,2,9,0.00
2013-2-26,68,52,35,29,21,6,71,34,12,28.75,28.54,10,2,10,0.00
2013-2-27,67,57,45,16,9,3,27,15,9,28.89,28.73,13,4,13,0.00
2013-2-28,72,57,42,22,12,4,33,18,8,28.99,28.80,12,3,12,0.00
2013-3-1,78,61,44,30,22,16,43,24,11,29.00,28.73,8,2,9,0.00
2013-3-2,84,64,49,35,29,16,53,31,9,28.94,28.62,8,2,7,0.00
2013-3-3,76,63,49,38,32,29,59,34,18,28.73,28.48,13,2,13,0.00
2013-3-4,66,58,51,37,35,28,57,43,28,28.69,28.49,15,1,6,0.00
2013-3-5,78,64,50,41,34,22,67,36,14,28.75,28.51,14,3,14,0.00
2013-3-6,80,66,52,40,33,26,58,32,14,28.65,28.41,12,2,12,0.00
2013-3-7,79,64,50,39,32,26,58,33,16,28.59,28.40,12,2,12,0.00
2013-3-8,68,55,45,54,44,27,96,72,25,28.66,28.36,23,7,23,0.65
2013-3-9,57,50,41,43,41,38,100,72,53,28.74,28.66,10,3,10,0.00
2013-3-10,72,57,41,47,39,28,100,57,22,28.87,28.64,12,2,12,0.00
2013-3-11,77,62,43,44,34,22,89,43,13,28.85,28.57,9,2,9,0.00
2013-3-12,82,69,60,41,30,26,49,24,13,28.68,28.52,7,0,7,0.00
2013-3-13,89,71,53,44,35,18,65,33,8,28.76,28.50,12,2,12,0.00
2013-3-14,92,74,57,41,33,18,50,27,7,28.72,28.46,15,2,15,0.00
2013-3-15,91,75,56,45,33,19,59,27,8,28.62,28.37,12,2,12,0.00
2013-3-16,88,77,64,34,29,18,29,18,10,28.45,28.24,15,4,15,0.00
2013-3-17,85,72,60,38,27,15,44,21,8,28.46,28.29,12,4,12,0.00
2013-3-18,84,70,56,36,30,21,38,24,12,28.57,28.41,13,3,13,0.00
2013-3-19,84,71,59,43,34,26,52,28,13,28.61,28.44,10,2,10,0.00
2013-3-20,83,71,56,41,35,30,54,30,16,28.64,28.37,12,3,12,0.00
2013-3-21,84,73,63,43,35,29,41,26,15,28.40,28.21,12,2,12,0.00
2013-3-22,83,70,56,42,33,19,53,27,13,28.40,28.20,15,3,15,0.00
2013-3-23,78,65,53,22,10,-10,28,14,3,28.61,28.40,15,4,15,0.00
2013-3-24,76,66,48,26,13,8,31,14,8,28.67,28.53,7,2,7,0.00
2013-3-25,68,65,60,26,21,18,27,19,15,28.54,28.51,1,0,0,0.00
2013-3-26,89,71,56,33,24,11,37,19,6,28.57,28.30,14,3,14,0.00
2013-3-27,69,67,61,27,20,17,26,17,14,28.54,28.44,10,1,10,0.00
2013-3-28,84,68,58,33,27,22,37,23,10,28.61,28.46,9,0,9,0.00
2013-3-29,87,71,65,31,25,17,26,18,8,28.63,28.48,8,0,8,0.00
2013-3-30,88,73,61,39,30,20,42,23,9,28.64,28.42,10,2,10,0.00
2013-3-31,90,72,54,39,31,22,53,25,10,28.64,28.38,12,3,12,0.00
2013-4-1,83,71,59,42,32,16,46,26,9,28.59,28.41,16,3,16,0.00
2013-4-2,85,69,52,34,26,18,39,22,9,28.58,28.35,17,3,17,0.00
2013-4-3,88,74,60,35,30,25,38,21,11,28.62,28.42,12,2,12,0.00
2013-4-4,90,73,57,40,32,18,49,25,9,28.67,28.41,12,2,12,0.00
2013-4-5,89,76,63,38,31,23,40,21,11,28.53,28.34,16,3,16,0.00
2013-4-6,89,74,59,37,32,25,38,23,11,28.57,28.32,12,3,12,0.00
2013-4-7,89,74,59,39,34,28,44,25,12,28.47,28.24,12,3,13,0.00
2013-4-8,81,69,56,48,38,30,66,34,16,28.27,27.95,25,8,25,0.07
2013-4-9,74,62,53,49,33,19,84,39,16,28.52,28.20,17,6,17,0.03
2013-4-10,78,64,49,34,27,20,42,25,13,28.63,28.46,15,4,15,0.00
2013-4-11,83,69,53,36,27,16,46,22,9,28.60,28.28,14,5,14,0.00
2013-4-12,89,72,53,37,27,18,52,22,8,28.44,28.21,12,2,12,0.00
2013-4-13,90,74,56,36,27,19,39,20,9,28.45,28.18,17,4,17,0.00
2013-4-14,89,75,61,34,29,21,31,20,9,28.34,28.11,16,5,16,0.00
2013-4-15,86,73,60,40,34,28,40,25,15,28.36,28.18,20,5,20,0.00
2013-4-16,80,69,57,46,35,15,50,31,13,28.42,28.25,20,5,20,0.00
2013-4-17,74,64,55,30,18,0,37,19,6,28.64,28.41,20,7,20,0.00
2013-4-18,78,64,49,18,12,3,26,14,8,28.78,28.61,13,5,13,0.00
2013-4-19,84,67,49,22,10,-2,28,12,4,28.83,28.47,10,2,10,0.00
2013-4-20,90,73,52,26,17,9,32,14,6,28.59,28.32,15,4,15,0.00
2013-4-21,95,76,57,34,22,6,34,16,4,28.62,28.36,12,2,12,0.00
2013-4-22,95,78,63,29,21,13,26,13,5,28.54,28.23,15,4,15,0.00
2013-4-23,93,78,63,31,24,14,28,14,8,28.44,28.24,13,3,13,0.00
2013-4-24,92,78,60,32,24,18,27,15,8,28.49,28.29,12,3,12,0.00
2013-4-25,85,73,65,40,31,23,29,21,13,28.61,28.40,18,5,18,0.00
2013-4-26,92,75,58,41,31,22,49,23,9,28.71,28.47,12,2,12,0.00
2013-4-27,98,82,68,35,23,12,26,12,5,28.64,28.33,13,3,13,0.00
2013-4-28,101,82,61,35,19,3,36,13,3,28.49,28.18,10,2,10,0.00
2013-4-29,103,84,64,36,20,10,31,11,4,28.38,28.07,15,4,15,0.00
2013-4-30,98,84,70,26,18,10,17,9,4,28.32,28.11,17,6,17,0.00
2013-5-1,94,80,64,29,21,10,22,12,6,28.50,28.32,13,4,13,0.00
2013-5-2,93,81,70,16,3,-5,10,5,3,28.71,28.46,14,5,14,0.00
2013-5-3,91,78,69,27,16,-2,19,10,4,28.64,28.31,17,6,17,0.00
2013-5-4,96,79,62,38,20,7,33,14,4,28.38,28.12,12,4,12,0.00
2013-5-5,92,79,71,31,23,13,18,13,6,28.44,28.26,20,6,20,0.00
2013-5-6,86,76,68,45,40,24,41,28,16,28.53,28.35,12,5,12,0.00
2013-5-7,84,76,64,46,40,34,53,28,20,28.59,28.41,13,4,13,0.00
2013-5-8,83,71,60,41,37,32,46,29,18,28.63,28.46,12,3,12,0.00
2013-5-9,88,74,61,45,36,29,43,26,13,28.58,28.38,16,3,16,0.00
2013-5-10,96,80,62,41,34,24,44,21,8,28.56,28.35,48,3,48,0.00
2013-5-11,94,82,67,42,33,23,37,19,8,28.62,28.43,16,4,16,0.00
2013-5-12,100,85,71,39,32,26,30,16,8,28.69,28.36,16,4,16,0.00
2013-5-13,103,87,73,38,31,22,27,14,6,28.58,28.29,13,4,13,0.00
2013-5-14,102,89,78,38,29,21,20,12,8,28.47,28.22,20,7,20,0.00
2013-5-15,98,88,74,39,32,25,25,15,9,28.47,28.24,15,5,15,0.00
2013-5-16,100,85,71,38,26,11,26,14,4,28.44,28.18,15,5,15,0.00
2013-5-17,92,81,66,33,26,15,23,14,10,28.43,28.28,15,4,15,0.00
2013-5-18,91,82,74,47,37,30,38,21,12,28.48,28.31,16,4,16,0.00
2013-5-19,96,80,67,45,36,29,42,22,11,28.48,28.21,13,2,17,0.00
2013-5-20,93,82,68,37,25,13,32,15,6,28.45,28.26,17,3,19,0.00
2013-5-21,99,82,65,37,24,12,29,14,5,28.48,28.20,13,2,13,0.00
2013-5-22,103,86,70,30,22,13,22,11,5,28.32,28.05,16,3,17,0.00
2013-5-23,100,85,72,34,26,20,19,12,7,28.34,28.16,17,2,17,0.00
2013-5-24,100,86,70,32,23,11,24,11,6,28.47,28.25,16,2,16,0.00
2013-5-25,100,87,68,33,22,16,25,10,6,28.50,28.26,12,2,14,0.00
2013-5-26,96,83,65,29,21,13,24,11,6,28.49,28.30,10,2,10,0.00
2013-5-27,94,80,67,41,29,20,37,17,8,28.46,28.21,10,1,10,0.00
2013-5-28,97,82,66,40,32,23,34,18,8,28.31,28.06,16,2,18,0.00
2013-5-29,97,84,69,47,39,31,34,22,13,28.28,28.10,16,2,16,0.00
2013-5-30,100,86,72,52,44,36,42,25,12,28.35,28.18,14,3,15,0.00
2013-5-31,93,83,76,54,44,32,44,28,13,28.37,28.22,7,1,9,0.00
2013-6-1,109,91,75,51,37,18,41,19,5,28.36,28.10,9,1,10,0.00
2013-6-2,108,92,78,46,36,24,30,15,6,28.29,28.03,12,2,14,0.00
2013-6-3,104,90,78,36,28,20,19,12,6,28.31,28.13,13,3,13,0.00
2013-6-4,104,93,78,40,29,20,24,11,6,28.36,28.16,10,2,10,0.00
2013-6-5,106,89,73,37,29,19,24,13,5,28.41,28.14,13,1,13,0.00
2013-6-6,109,91,75,41,28,16,28,12,4,28.33,28.05,14,1,14,0.00
2013-6-7,112,94,77,41,28,19,26,11,4,28.30,28.01,15,2,15,0.00
2013-6-8,106,93,78,38,28,20,24,11,5,28.30,28.13,16,3,16,0.00
2013-6-9,107,91,77,38,26,7,22,11,3,28.41,28.17,13,2,14,0.00
2013-6-10,109,92,78,38,24,8,22,10,3,28.38,28.14,12,2,12,0.00
2013-6-11,107,92,77,37,28,20,21,11,6,28.40,28.18,13,1,13,0.00
2013-6-12,111,96,80,40,32,22,22,11,5,28.38,28.18,14,2,14,0.00
2013-6-13,104,92,80,45,42,38,27,18,13,28.43,28.18,15,3,16,0.00
2013-6-14,96,88,85,41,38,34,20,17,12,28.28,28.16,6,0,9,0.00
2013-6-15,105,94,82,42,34,28,23,13,8,28.34,28.17,13,2,13,0.00
2013-6-16,106,91,76,38,28,20,24,11,5,28.44,28.22,12,2,12,0.00
2013-6-17,107,91,75,41,26,13,26,11,4,28.43,28.19,12,1,13,0.00
2013-6-18,108,91,76,34,22,9,18,9,3,28.36,28.10,11,2,12,0.00
2013-6-19,106,92,72,38,21,12,29,9,4,28.31,28.08,13,2,17,0.00
2013-6-20,105,90,75,34,26,18,21,11,5,28.32,28.13,12,2,17,0.00
2013-6-21,105,89,72,33,24,13,22,10,4,28.37,28.14,12,2,15,0.00
2013-6-22,104,86,74,36,27,18,21,12,5,28.36,28.13,10,2,10,0.00
2013-6-23,107,90,76,30,21,6,17,9,3,28.33,28.06,15,3,15,0.00
2013-6-24,102,88,73,40,27,19,22,12,6,28.35,28.18,12,2,13,0.00
2013-6-25,106,89,74,42,32,22,32,15,6,28.45,28.22,12,2,12,0.00
2013-6-26,107,91,75,35,28,21,18,11,6,28.52,28.29,12,2,12,0.00
2013-6-27,107,92,78,41,33,21,24,14,6,28.55,28.26,13,2,15,0.00
2013-6-28,117,99,78,44,38,30,28,14,6,28.42,28.08,10,2,10,0.00
2013-6-29,119,103,87,50,37,29,22,12,5,28.28,28.04,12,2,15,0.00
2013-6-30,112,98,87,57,49,39,35,20,10,28.30,28.06,15,2,15,0.00
2013-7-1,111,99,88,58,51,44,34,22,12,28.36,28.11,13,3,17,0.00
2013-7-2,106,96,85,62,54,48,46,26,15,28.50,28.19,21,4,22,0.00
2013-7-3,109,95,84,54,50,42,33,23,12,28.38,28.06,15,4,18,0.00
2013-7-4,105,94,86,55,51,47,32,24,15,28.30,28.07,13,2,16,0.00
2013-7-5,106,94,84,60,54,48,40,27,15,28.34,28.11,10,2,14,0.00
2013-7-6,108,94,81,63,57,47,52,32,16,28.30,28.07,11,1,12,0.00
2013-7-7,109,93,86,63,57,49,44,31,15,28.28,28.10,9,1,10,0.00
2013-7-11,97,89,79,69,63,57,71,43,31,28.51,28.31,12,2,13,0.00
2013-7-12,100,88,81,67,61,57,53,41,25,28.42,28.31,20,3,20,0.00
2013-7-13,105,96,88,63,58,54,44,29,21,28.38,28.20,12,2,12,0.00
2013-7-14,92,89,86,58,56,54,38,34,29,28.33,28.30,4,0,6,0.00
2013-7-17,106,95,88,60,56,50,39,28,17,28.40,28.29,13,3,15,0.00
2013-7-18,109,95,86,60,54,48,38,26,14,28.46,28.17,18,4,18,0.00
2013-7-19,107,90,73,72,61,54,92,41,19,28.45,28.17,22,3,23,0.48
2013-7-20,101,90,77,71,66,59,82,48,29,28.43,28.16,21,4,22,0.02
2013-7-21,89,79,72,75,71,68,99,78,54,28.51,28.36,14,2,14,0.75
2013-7-22,96,85,75,74,68,59,96,60,35,28.50,28.34,9,2,11,0.00
2013-7-23,102,89,77,69,62,56,72,45,24,28.49,28.26,13,2,13,0.00
2013-7-24,106,94,82,63,60,55,51,34,21,28.40,28.17,13,2,13,0.00
2013-7-25,91,85,76,73,66,62,88,56,38,28.50,28.32,13,4,13,0.09
2013-7-26,94,92,90,64,62,60,42,37,33,28.48,28.41,14,5,19,0.00
2013-7-27,104,91,78,72,63,58,81,42,24,28.53,28.20,13,2,13,0.08
2013-7-28,106,94,86,63,54,42,45,28,13,28.34,28.13,13,3,13,0.00
2013-7-29,106,93,82,51,45,36,34,21,10,28.44,28.28,13,2,13,0.00
2013-7-30,108,94,80,55,48,43,39,22,14,28.56,28.34,10,2,10,0.00
2013-7-31,109,95,83,56,50,43,34,23,12,28.51,28.24,16,2,17,0.00
2013-8-1,103,95,89,60,56,52,38,28,19,28.40,28.24,15,5,20,0.00
2013-8-2,107,94,87,61,55,46,42,28,15,28.40,28.22,14,4,15,0.00
2013-8-3,108,95,85,58,51,34,39,24,11,28.46,28.23,13,4,13,0.00
2013-8-4,108,91,83,50,41,32,30,19,10,28.44,28.25,8,1,9,0.00
2013-8-5,100,90,82,61,49,30,40,26,13,28.49,28.29,18,2,20,0.00
2013-8-6,87,80,74,70,64,56,87,58,37,28.61,28.40,13,4,14,0.00
2013-8-7,80,78,75,66,64,61,72,61,55,28.54,28.48,10,4,10,0.00
2013-8-10,103,96,85,32,28,26,14,10,7,28.42,28.25,12,2,15,0.00
2013-8-11,106,90,74,50,39,27,30,17,12,28.50,28.19,10,1,11,0.00
2013-8-12,104,87,79,57,41,25,45,23,8,28.42,28.20,13,2,13,0.00
2013-8-13,105,92,76,42,30,14,29,12,5,28.48,28.24,10,2,12,0.00
2013-8-14,110,100,93,45,41,34,18,14,8,28.31,28.18,10,2,10,0.00
2013-8-15,110,95,80,65,54,42,59,27,12,28.44,28.20,13,3,19,0.04
2013-8-16,113,98,84,56,51,42,35,22,10,28.38,28.16,13,2,15,0.00
2013-8-17,113,97,86,64,53,43,45,25,12,28.48,28.12,16,2,16,0.00
2013-8-18,111,95,83,63,53,40,51,27,10,28.47,28.18,18,2,19,0.00
2013-8-19,110,95,86,60,52,44,40,25,12,28.42,28.18,10,2,12,0.00
2013-8-20,109,95,84,55,50,42,36,23,12,28.38,28.14,22,3,22,0.00
2013-8-21,101,91,87,59,55,50,36,31,21,28.43,28.27,14,2,18,0.00
2013-8-22,103,93,83,58,54,49,40,28,18,28.42,28.20,12,2,12,0.00
2013-8-23,102,90,80,62,56,47,53,33,17,28.40,28.15,12,2,12,0.00
2013-8-24,99,87,78,68,60,54,71,43,25,28.50,28.27,17,3,17,0.00
2013-8-25,86,83,79,68,64,58,67,54,42,28.53,28.42,13,3,15,0.00
2013-8-26,99,84,75,74,64,59,90,54,29,28.49,28.26,10,2,14,0.16
2013-8-27,108,90,77,71,63,47,83,46,15,28.43,28.14,16,2,16,0.00
2013-8-28,106,93,75,72,58,51,90,35,19,28.52,28.17,16,3,16,0.15
2013-8-29,99,84,75,73,68,62,88,63,34,28.59,28.42,12,2,12,0.00
2013-8-30,100,85,79,73,68,61,79,59,32,28.58,28.37,12,2,12,0.00
2013-8-31,89,80,78,72,70,61,81,73,40,28.52,28.38,8,2,14,0.00
2013-9-1,104,97,89,63,60,56,38,30,23,28.34,28.20,15,5,15,0.00
2013-9-2,102,90,80,66,62,59,57,40,27,28.41,28.22,16,3,16,0.00
2013-9-3,109,94,75,72,59,50,88,37,15,28.42,28.17,10,3,10,0.06
2013-9-4,109,96,85,61,53,42,44,26,11,28.44,28.20,12,4,12,0.00
2013-9-5,111,96,80,61,50,38,48,23,9,28.42,28.18,13,3,13,0.00
2013-9-6,109,95,86,61,52,44,42,25,12,28.44,28.16,12,5,12,0.00
2013-9-7,92,85,80,64,60,54,56,43,29,28.50,28.32,12,4,12,0.00
2013-9-8,89,81,72,72,64,57,95,58,38,28.50,28.28,14,4,15,0.23
2013-9-9,84,76,71,74,69,61,100,80,47,28.42,28.29,13,4,13,0.58
2013-9-10,86,76,71,71,66,61,94,73,48,28.49,28.35,20,4,20,0.01
2013-9-11,93,81,69,69,62,53,93,57,28,28.55,28.36,12,2,12,0.00
2013-9-12,100,87,72,62,53,41,66,35,15,28.47,28.20,10,2,10,0.00
2013-9-13,101,88,74,61,56,51,55,36,21,28.34,28.07,12,2,12,0.00
2013-9-14,104,91,80,60,56,46,51,32,15,28.25,28.06,16,6,16,0.00
2013-9-15,105,90,76,59,53,43,52,30,14,28.31,28.12,13,2,13,0.00
2013-9-16,106,94,82,56,53,48,40,25,15,28.32,28.12,17,5,17,0.00
2013-9-17,106,94,88,58,54,43,34,27,17,28.28,28.05,17,6,17,0.00
2013-9-18,104,90,81,46,36,19,27,17,5,28.25,28.06,13,4,13,0.00
2013-9-19,102,86,72,48,36,21,41,19,6,28.35,28.13,13,2,13,0.00
2013-9-20,102,87,70,48,42,30,40,22,13,28.39,28.16,12,2,12,0.00
2013-9-21,102,89,81,56,50,45,40,28,16,28.37,28.11,14,5,14,0.00
2013-9-22,87,80,66,59,38,6,42,24,5,28.37,28.19,17,5,17,0.00
2013-9-23,93,77,60,41,30,21,45,20,8,28.48,28.31,12,2,12,0.00
2013-9-24,98,80,64,42,34,26,40,21,9,28.55,28.27,9,2,9,0.00
2013-9-25,95,81,70,47,39,27,39,23,9,28.38,28.11,12,3,12,0.00
2013-9-26,94,81,72,48,36,25,29,20,12,28.33,28.10,17,7,17,0.00
2013-9-27,83,74,66,33,28,18,28,19,10,28.46,28.32,13,4,13,0.00
2013-9-28,92,81,69,33,23,13,22,12,6,28.64,28.45,9,2,9,0.00
2013-9-29,90,70,61,37,31,22,37,25,10,28.67,28.53,8,1,8,0.00
2013-10-3,92,80,73,44,39,31,35,24,12,28.35,28.19,16,3,16,0.00
2013-10-4,87,75,63,48,29,7,52,23,6,28.59,28.36,13,4,13,0.00
2013-10-5,85,74,63,24,16,8,18,12,6,28.74,28.55,12,4,12,0.00
2013-10-6,92,77,61,28,18,5,21,12,4,28.72,28.47,10,3,10,0.00
2013-10-7,92,77,61,31,24,18,28,15,8,28.62,28.36,17,3,17,0.00
2013-10-8,91,77,63,37,30,23,30,19,11,28.48,28.24,13,3,13,0.00
2013-10-9,85,75,69,48,36,26,48,25,18,28.33,28.20,15,7,15,0.00
2013-10-10,70,63,53,49,40,32,84,45,26,28.61,28.32,15,4,15,0.01
2013-10-11,77,65,52,42,37,32,63,38,21,28.66,28.48,10,2,10,0.00
2013-10-12,83,68,52,42,37,32,64,34,17,28.61,28.38,9,1,9,0.00
2013-10-13,83,70,56,43,37,32,55,31,17,28.58,28.40,12,3,12,0.00
2013-10-14,82,70,59,47,37,25,61,32,14,28.65,28.46,10,2,10,0.00
2013-10-15,80,68,54,37,31,24,47,26,14,28.59,28.40,12,2,12,0.00
2013-10-16,80,67,52,36,30,25,46,26,15,28.69,28.52,9,2,9,0.00
2013-10-17,80,67,52,37,30,24,48,26,14,28.70,28.44,12,2,12,0.00
2013-10-18,81,68,52,37,29,22,49,26,12,28.64,28.46,10,1,10,0.00
2013-10-19,84,69,55,38,25,14,36,21,8,28.67,28.44,9,2,9,0.00
2013-10-20,82,68,53,33,25,17,42,22,10,28.61,28.37,10,2,10,0.00
2013-10-21,85,69,52,35,26,18,46,23,9,28.62,28.43,10,1,10,0.00
2013-10-22,88,72,56,36,27,16,38,21,7,28.67,28.40,10,2,10,0.00
2013-10-23,90,75,62,38,27,21,30,18,9,28.54,28.32,16,2,16,0.00
2013-10-24,87,74,63,36,28,20,36,19,9,28.56,28.36,15,3,15,0.00
2013-10-25,86,71,56,37,29,20,40,22,11,28.67,28.48,9,1,9,0.00
2013-10-26,88,73,57,38,34,29,44,26,14,28.73,28.48,10,1,10,0.00
2013-10-27,87,74,60,40,34,27,44,25,13,28.57,28.28,12,2,12,0.00
2013-10-28,82,72,61,44,37,29,42,28,18,28.44,28.31,15,5,15,0.00
2013-10-29,72,64,55,45,40,36,62,43,29,28.57,28.44,17,3,17,0.00
2013-10-30,72,61,49,40,34,29,65,39,22,28.68,28.53,12,2,12,0.00
2013-10-31,73,61,49,36,31,28,57,34,20,28.78,28.59,12,2,12,0.00
2013-11-1,77,64,48,37,31,26,59,32,15,28.81,28.57,8,2,8,0.00
2013-11-2,84,68,51,36,27,14,45,25,8,28.69,28.36,15,3,15,0.00
2013-11-3,79,69,59,47,33,26,47,27,16,28.49,28.30,10,2,10,0.00
2013-11-4,77,65,53,50,36,28,62,36,20,28.46,28.27,17,4,17,0.01
2013-11-5,73,63,52,48,42,24,80,50,24,28.79,28.45,12,2,12,0.00
2013-11-6,74,62,48,34,20,6,51,24,8,28.93,28.73,7,2,7,0.00
2013-11-7,81,66,52,26,14,3,25,14,6,28.85,28.58,16,3,16,0.00
2013-11-8,82,67,54,35,28,15,35,25,15,28.72,28.49,12,1,12,0.00
2013-11-9,80,67,53,40,35,32,59,34,18,28.73,28.54,13,2,13,0.00
2013-11-10,79,67,55,40,37,33,51,34,21,28.76,28.55,7,1,7,0.00
2013-11-11,85,71,55,43,37,18,53,31,10,28.71,28.48,9,1,9,0.00
2013-11-12,88,76,60,39,31,24,30,20,10,28.77,28.57,17,4,17,0.00
2013-11-13,80,75,70,43,40,34,34,28,22,28.72,28.51,20,7,20,0.00
2013-11-14,79,68,57,48,43,40,61,42,27,28.65,28.41,9,1,9,0.00
2013-11-15,80,69,59,52,44,37,64,42,24,28.44,28.13,15,6,15,0.00
2013-11-16,71,63,58,54,48,41,79,59,39,28.54,28.32,13,2,13,0.00
2013-11-17,71,63,53,49,46,42,73,54,39,28.69,28.54,10,3,10,0.00
2013-11-18,76,65,54,48,45,41,73,51,30,28.73,28.52,7,1,7,0.00
2013-11-19,74,64,53,48,45,43,76,52,36,28.64,28.42,9,1,9,0.00
2013-11-20,72,64,58,47,44,40,60,49,38,28.51,28.40,9,2,9,0.00
2013-11-21,69,62,55,58,46,40,95,57,44,28.56,28.47,13,3,13,0.30
2013-11-22,58,55,52,58,55,52,100,99,94,28.67,28.45,12,2,12,1.48
2013-11-23,58,53,50,52,47,40,100,79,56,28.76,28.61,17,6,17,0.41
2013-11-24,59,52,44,49,42,38,92,70,51,28.87,28.75,12,2,12,0.03
2013-11-25,61,51,42,47,43,39,100,76,48,28.91,28.78,9,1,9,0.00
2013-11-26,68,58,45,46,37,26,96,52,24,28.95,28.75,20,4,20,0.00
2013-11-27,68,63,60,28,25,22,27,24,20,28.79,28.61,20,8,20,0.00
2013-11-28,61,61,60,24,23,22,24,23,23,28.67,28.65,13,9,13,0.00
2013-12-1,69,62,54,50,45,42,75,56,38,28.87,28.71,16,2,16,0.00
2013-12-2,67,56,46,46,42,37,91,63,36,28.81,28.56,8,1,8,0.00
2013-12-3,69,58,46,45,40,33,92,54,27,28.57,28.28,12,3,12,0.00
2013-12-4,61,56,45,46,36,27,63,49,34,28.63,28.32,18,4,18,0.00
2013-12-5,54,45,36,31,22,15,72,42,24,28.85,28.62,12,2,12,0.00
2013-12-6,53,42,31,26,21,16,73,46,24,28.93,28.77,9,1,9,0.00
2013-12-7,56,45,31,34,27,22,91,53,29,28.86,28.63,12,3,12,0.00
2013-12-8,57,51,45,39,30,19,67,46,29,28.79,28.67,12,3,12,0.00
2013-12-9,47,42,30,20,14,8,63,33,23,29.05,28.94,9,2,9,0.00
2013-12-10,60,46,36,19,13,6,43,27,13,29.05,28.75,9,1,9,0.00
2013-12-11,68,55,39,28,22,17,52,30,16,28.89,28.71,13,2,13,0.00
2013-12-12,70,62,53,32,27,23,42,27,20,28.80,28.64,16,5,16,0.00
2013-12-13,61,53,43,32,28,24,60,40,27,28.87,28.71,9,2,9,0.00
2013-12-14,65,52,39,36,28,15,79,44,20,28.98,28.83,8,1,8,0.01
2013-12-15,67,54,42,29,23,16,48,31,16,29.02,28.78,7,1,7,0.00
2013-12-16,71,58,46,31,28,25,54,34,20,28.89,28.70,6,1,6,0.00
2013-12-17,76,60,47,37,32,27,58,37,17,28.88,28.63,6,1,6,0.00
2013-12-18,74,61,51,40,34,26,55,38,17,28.70,28.44,10,1,10,0.00
2013-12-19,69,59,50,53,37,28,96,48,24,28.48,28.27,15,6,15,0.04
2013-12-20,57,53,48,52,47,44,97,82,63,28.50,28.32,16,4,16,0.24
2013-12-21,56,49,43,48,41,31,100,77,38,28.75,28.49,12,2,12,0.00
2013-12-22,59,48,37,44,38,36,100,72,43,28.98,28.75,8,1,8,0.00
2013-12-23,65,52,40,41,35,27,92,57,25,29.06,28.87,9,1,9,0.00
2013-12-24,67,54,43,35,32,25,69,44,22,28.92,28.71,7,1,7,0.00
2013-12-25,67,56,43,35,26,10,69,36,13,28.96,28.75,10,1,10,0.00
2013-12-26,67,57,48,29,22,12,47,26,16,28.91,28.72,15,2,15,0.00
2013-12-27,70,55,43,30,25,19,52,33,15,28.91,28.68,8,1,8,0.00
2013-12-28,66,54,43,34,29,21,60,39,20,28.79,28.56,9,1,9,0.00
2013-12-29,67,53,40,37,29,18,71,43,22,28.82,28.60,12,2,12,0.00
2013-12-30,64,52,40,27,22,17,54,33,17,28.94,28.79,7,1,7,0.00
2013-12-31,67,52,39,32,27,22,63,40,22,28.93,28.69,7,1,7,0.00
2014-1-1,66,53,39,35,31,27,71,44,25,28.86,28.67,7,1,7,0.00
2014-1-2,74,59,43,36,28,20,66,36,14,28.86,28.61,13,2,13,0.00